Reno, NV

1:07 PM PDT on March 27, 2017 (GMT -0700)
Reno-Tahoe International

Weather History for KRNO - October, 2012

Change the Weather History Date:

Friday, October 5, 2012

  Actual Average Record
Temperature  
Mean Temperature 63 °F 58 °F  
Max Temperature 78 °F 74 °F 89 °F (1979)
Min Temperature 48 °F 42 °F 20 °F (1969)
Degree Days  
Heating Degree Days 2 7  
Month to date heating degree days 2 33  
Since 1 July heating degree days 3 123  
Cooling Degree Days 0 0  
Month to date cooling degree days 16 4  
Year to date cooling degree days 1271 838  
Growing Degree Days 13 (Base 50)    
Moisture  
Dew Point 30 °F    
Average Humidity 33    
Maximum Humidity 54    
Minimum Humidity 12    
Precipitation  
Precipitation 0.00 in 0.02 in 1.06 in (1993)
Month to date precipitation 0.00 0.08  
Year to date precipitation 2.73 5.12  
Snow  
Snow 0.00 in 0.00 in T in (1946)
Month to date snowfall 0.0 0.0  
Since 1 July snowfall 0.0 0.1  
Since 1 September snowfall 0.0 0.1  
Snow Depth 0.00 in    
Sea Level Pressure  
Sea Level Pressure 30.03 in    
Wind  
Wind Speed 4 mph (NW)    
Max Wind Speed 17 mph    
Max Gust Speed 22 mph    
Visibility 10 miles    
Events      
T = Trace of Precipitation, MM = Missing Value Source: NWS Daily Summary

Daily Weather History Graph

Daily Weather History Graph

Search for Another Location

Airport or City:

Trip Planner

Search our weather history database for the weather conditions in past years. The results will help you decide how hot, cold, wet, or windy it might be!

Date:

Astronomy

Oct. 05, 2012 Rise Set
Actual Time 6:59 AM PDT 6:34 PM PDT
Civil Twilight 6:32 AM PDT 7:01 PM PDT
Nautical Twilight 6:01 AM PDT 7:32 PM PDT
Astronomical Twilight 5:30 AM PDT 8:03 PM PDT
Moon 10:03 PM PDT (10/5) 12:10 PM PDT (10/5)
Length of Visible Light 12h 28m
Length of Day
11h 34m
Waning Gibbous, 73% of the Moon is Illuminated
Oct 5
Waning Gibbous
Oct 8
Last Quarter
Oct 15
New
Oct 21
First Quarter
Oct 29
Full

Hourly Weather History & Observations

Time (PDT) Temp. Dew Point Humidity Pressure Visibility Wind Dir Wind Speed Gust Speed Precip Events Conditions
12:55 AM 64.0 °F 30.0 °F 28% 30.02 in 10.0 mi West 4.6 mph - N/A   Clear
1:55 AM 63.0 °F 30.0 °F 29% 30.03 in 10.0 mi West 6.9 mph - N/A   Partly Cloudy
2:55 AM 55.0 °F 32.0 °F 42% 30.05 in 10.0 mi Calm Calm - N/A   Scattered Clouds
3:55 AM 54.0 °F 32.0 °F 43% 30.04 in 10.0 mi Calm Calm - N/A   Clear
4:55 AM 52.0 °F 32.0 °F 47% 30.06 in 10.0 mi Calm Calm - N/A   Scattered Clouds
5:55 AM 51.1 °F 30.9 °F 46% 30.06 in 10.0 mi Variable 3.5 mph - N/A   Scattered Clouds
6:55 AM 48.9 °F 32.0 °F 52% 30.09 in 10.0 mi South 3.5 mph - N/A   Mostly Cloudy
7:55 AM 50.0 °F 33.1 °F 52% 30.10 in 10.0 mi Calm Calm - N/A   Mostly Cloudy
8:55 AM 55.0 °F 32.0 °F 42% 30.10 in 10.0 mi East 3.5 mph - N/A   Mostly Cloudy
9:55 AM 61.0 °F 32.0 °F 34% 30.08 in 10.0 mi Calm Calm - N/A   Mostly Cloudy
10:55 AM 64.0 °F 30.9 °F 29% 30.06 in 10.0 mi Calm Calm - N/A   Mostly Cloudy
11:55 AM 70.0 °F 32.0 °F 25% 30.04 in 10.0 mi Calm Calm - N/A   Mostly Cloudy
12:55 PM 73.0 °F 30.0 °F 20% 30.01 in 10.0 mi WNW 4.6 mph - N/A   Mostly Cloudy
1:55 PM 75.0 °F 28.0 °F 18% 29.99 in 10.0 mi Calm Calm - N/A   Mostly Cloudy
2:55 PM 75.0 °F 27.0 °F 17% 29.98 in 10.0 mi Variable 5.8 mph - N/A   Mostly Cloudy
3:55 PM 77.0 °F 25.0 °F 15% 29.96 in 10.0 mi Variable 5.8 mph - N/A   Mostly Cloudy
4:55 PM 77.0 °F 21.9 °F 13% 29.96 in 10.0 mi NW 10.4 mph - N/A   Mostly Cloudy
5:55 PM 73.9 °F 25.0 °F 16% 29.97 in 10.0 mi NW 8.1 mph - N/A   Mostly Cloudy
6:55 PM 71.1 °F 30.0 °F 22% 29.99 in 10.0 mi NNW 11.5 mph - N/A   Mostly Cloudy
7:55 PM 66.9 °F 30.9 °F 26% 30.01 in 10.0 mi NNE 10.4 mph - N/A   Mostly Cloudy
8:55 PM 64.0 °F 32.0 °F 30% 30.01 in 10.0 mi North 8.1 mph - N/A   Mostly Cloudy
9:55 PM 63.0 °F 32.0 °F 31% 30.01 in 10.0 mi North 6.9 mph - N/A   Scattered Clouds
10:55 PM 59.0 °F 32.0 °F 36% 30.02 in 10.0 mi Calm Calm - N/A   Partly Cloudy
11:55 PM 57.0 °F 28.9 °F 34% 30.03 in 10.0 mi West 5.8 mph - N/A   Clear